Change the Weather History Date:

Tuesday, December 31, 2013

  Actual Average Record
Temperature  
Mean Temperature 4 °F -  
Max Temperature 8 °F 29 °F 57 °F (2001)
Min Temperature 1 °F 14 °F -12 °F (1968)
Degree Days  
Heating Degree Days 60    
Moisture  
Dew Point -3 °F    
Average Humidity 70    
Maximum Humidity 79    
Minimum Humidity 56    
Precipitation  
Precipitation 0.00 in - - ()
Sea Level Pressure  
Sea Level Pressure 30.24 in    
Wind  
Wind Speed 9 mph (WNW)    
Max Wind Speed 14 mph    
Max Gust Speed 17 mph    
Visibility 9 miles    
Events Snow    
Averages and records for this station are not official NWS values.
T = Trace of Precipitation, MM = Missing Value Source: NWS Daily Summary

Daily Weather History Graph

Daily Weather History Graph

Search for Another Location

Airport or City:

Trip Planner

Search our weather history database for the weather conditions in past years. The results will help you decide how hot, cold, wet, or windy it might be!

Date:

Astronomy

Dec. 31, 2013 Rise Set
Actual Time 7:23 AM CST 4:27 PM CST
Civil Twilight 6:51 AM CST 4:59 PM CST
Nautical Twilight 6:15 AM CST 5:35 PM CST
Astronomical Twilight 5:41 AM CST 6:09 PM CST
Moon 6:15 AM CST (12/31) 4:04 PM CST (12/31)
Length of Visible Light 10h 07m
Length of Day
9h 03m
Waning Crescent, 1% of the Moon is Illuminated
Dec 31
Waning Crescent
Jan 1
New
Jan 7
First Quarter
Jan 15
Full
Jan 23
Last Quarter

Hourly Weather History & Observations

Time (CST) Temp. Windchill Dew Point Humidity Pressure Visibility Wind Dir Wind Speed Gust Speed Precip Events Conditions
12:15 AM 3.2 °F -11.3 °F -4.0 °F 72% 30.16 in 4.0 mi West 9.2 mph - N/A Snow Light Snow
12:35 AM 3.2 °F -11.3 °F -4.0 °F 72% 30.16 in 7.0 mi West 9.2 mph - N/A   Overcast
12:55 AM 3.2 °F -10.3 °F -4.0 °F 72% 30.15 in 10.0 mi West 8.1 mph - N/A   Overcast
1:15 AM 3.2 °F -11.3 °F -4.0 °F 72% 30.16 in 10.0 mi West 9.2 mph - N/A   Overcast
1:35 AM 3.2 °F -12.2 °F -4.0 °F 72% 30.16 in 10.0 mi West 10.4 mph - N/A   Overcast
1:55 AM 3.2 °F -11.3 °F -4.0 °F 72% 30.15 in 10.0 mi West 9.2 mph - N/A   Overcast
2:15 AM 3.2 °F -13.1 °F -4.0 °F 72% 30.15 in 10.0 mi West 11.5 mph - N/A   Overcast
2:35 AM 3.2 °F -12.2 °F -4.0 °F 72% 30.16 in 10.0 mi West 10.4 mph - N/A   Overcast
2:55 AM 3.2 °F -10.3 °F -4.0 °F 72% 30.16 in 10.0 mi West 8.1 mph - N/A   Overcast
3:15 AM 3.2 °F -11.3 °F -4.0 °F 72% 30.16 in 10.0 mi West 9.2 mph - N/A   Overcast
3:35 AM 3.2 °F -13.1 °F -4.0 °F 72% 30.17 in 10.0 mi West 11.5 mph - N/A   Overcast
3:55 AM 3.2 °F -11.3 °F -4.0 °F 72% 30.17 in 10.0 mi West 9.2 mph - N/A   Overcast
4:15 AM 3.2 °F -11.3 °F -4.0 °F 72% 30.17 in 10.0 mi West 9.2 mph - N/A   Overcast
4:35 AM 3.2 °F -11.3 °F -4.0 °F 72% 30.17 in 10.0 mi West 9.2 mph - N/A   Overcast
4:55 AM 3.2 °F -12.2 °F -4.0 °F 72% 30.17 in 10.0 mi West 10.4 mph - N/A   Overcast
5:15 AM 3.2 °F -13.1 °F -4.0 °F 72% 30.18 in 10.0 mi West 11.5 mph - N/A   Overcast
5:35 AM 3.2 °F -11.3 °F -4.0 °F 72% 30.19 in 10.0 mi West 9.2 mph - N/A   Overcast
5:55 AM 3.2 °F -12.2 °F -4.0 °F 72% 30.20 in 10.0 mi West 10.4 mph - N/A   Overcast
6:15 AM 3.2 °F -13.9 °F -4.0 °F 72% 30.21 in 10.0 mi West 12.7 mph - N/A   Overcast
6:35 AM 3.2 °F -13.1 °F -4.0 °F 72% 30.21 in 10.0 mi West 11.5 mph 17.3 mph N/A   Overcast
6:45 AM 1.4 °F -12.5 °F -5.8 °F 72% 30.21 in 10.0 mi WNW 8.1 mph - N/A   Overcast
7:45 AM 1.4 °F -12.5 °F -5.8 °F 72% 30.22 in 10.0 mi WNW 8.1 mph - N/A   Mostly Cloudy
8:45 AM 3.2 °F -9.1 °F -5.8 °F 66% 30.23 in 10.0 mi WNW 6.9 mph - N/A   Clear
9:45 AM 5.0 °F -8.1 °F -4.0 °F 66% 30.27 in 10.0 mi WSW 8.1 mph - N/A   Clear
10:45 AM 6.8 °F -6.9 °F -2.2 °F 67% 30.29 in 10.0 mi West 9.2 mph - N/A   Mostly Cloudy
11:45 AM 6.8 °F -6.9 °F -2.2 °F 67% 30.27 in 10.0 mi West 9.2 mph - N/A   Overcast
12:45 PM 6.8 °F -6.9 °F -2.2 °F 67% 30.26 in 10.0 mi West 9.2 mph - N/A   Overcast
1:45 PM 8.6 °F -7.7 °F -2.2 °F 62% 30.25 in 10.0 mi West 13.8 mph - N/A   Overcast
2:45 PM 8.6 °F -7.7 °F -2.2 °F 62% 30.25 in 10.0 mi West 13.8 mph - N/A   Overcast
3:45 PM 6.8 °F -6.9 °F -2.2 °F 67% 30.27 in 4.0 mi WSW 9.2 mph - N/A   Haze
4:45 PM 6.8 °F -6.9 °F -0.4 °F 72% 30.28 in 2.5 mi West 9.2 mph - N/A Snow Light Snow
5:45 PM 6.8 °F -3.5 °F 1.4 °F 79% 30.28 in 2.5 mi West 5.8 mph - N/A Snow Light Snow
8:15 PM 8.6 °F -1.3 °F 1.4 °F 73% 30.33 in 5.0 mi West 5.8 mph - N/A Snow Light Snow
8:35 PM 8.6 °F 0.1 °F 1.4 °F 73% 30.33 in 4.0 mi West 4.6 mph - N/A Snow Light Snow
8:55 PM 8.6 °F -1.3 °F 1.4 °F 73% 30.34 in 7.0 mi West 5.8 mph - N/A   Mostly Cloudy
9:15 PM 8.6 °F -1.3 °F 1.4 °F 73% 30.34 in 10.0 mi West 5.8 mph - N/A   Mostly Cloudy
9:35 PM 8.6 °F 0.1 °F 1.4 °F 73% 30.34 in 10.0 mi WNW 4.6 mph - N/A   Overcast
9:55 PM 8.6 °F 0.1 °F 1.4 °F 73% 30.34 in 10.0 mi NW 4.6 mph - N/A   Overcast
10:15 PM 8.6 °F - 1.4 °F 73% 30.35 in 10.0 mi Calm Calm - N/A   Overcast
10:35 PM 8.6 °F -3.7 °F -0.4 °F 67% 30.34 in 10.0 mi North 8.1 mph - N/A   Overcast
10:55 PM 8.6 °F -3.7 °F -4.0 °F 57% 30.34 in 10.0 mi North 8.1 mph - N/A   Overcast
11:15 PM 8.6 °F -4.7 °F -4.0 °F 57% 30.33 in 10.0 mi North 9.2 mph - N/A   Overcast
11:35 PM 6.8 °F -7.8 °F -5.8 °F 56% 30.33 in 10.0 mi North 10.4 mph - N/A   Overcast
11:55 PM 5.0 °F -10.8 °F -4.0 °F 66% 30.32 in 10.0 mi North 11.5 mph - N/A   Overcast